This demonstration page uses our WeatherBlox Daily Observations layout. Learn more.

Left ArrowRight Arrow

53.62937, 11.41316

Hourly Observations for June 7, 2018

Temp ( °F °C ) Dew Point ( °F °C ) Humidity (%) Winds ( mph kmh ) Pressure ( in mb ) Visibility ( mi km ) Precip ( " mm )
5:50 am 05:50 Mostly Sunny 54 12 41 5 63 63 E 6 9 30.06 1018 7 11 N/A
6:20 am 06:20 Mostly Sunny 57 14 41 5 55 55 ESE 5 7 30.06 1018 7 11 N/A
6:50 am 06:50 Mostly Sunny 59 15 41 5 51 51 ESE 5 7 30.06 1018 7 11 N/A
7:20 am 07:20 Mostly Sunny 61 16 41 5 48 48 SE 3 6 30.06 1018 7 11 N/A
7:50 am 07:50 Mostly Sunny 63 17 41 5 45 45 ESE 7 11 30.06 1018 7 11 N/A
8:20 am 08:20 Mostly Sunny 64 18 43 6 46 46 SE 6 9 30.06 1018 7 11 N/A
8:50 am 08:50 Mostly Sunny 64 18 41 5 43 43 ESE 7 11 30.06 1018 7 11 N/A
9:20 am 09:20 Mostly Sunny 66 19 43 6 43 43 SE 7 11 30.06 1018 7 11 N/A
9:50 am 09:50 Mostly Sunny 68 20 43 6 40 40 ESE 7 11 30.06 1018 7 11 N/A
10:20 am 10:20 Mostly Sunny 70 21 43 6 38 38 ESE 8 13 30.06 1018 7 11 N/A
10:50 am 10:50 Mostly Sunny 72 22 41 5 33 33 E 10 17 30.06 1018 7 11 N/A
11:20 am 11:20 Mostly Sunny 73 23 43 6 33 33 ESE 9 15 30.06 1018 7 11 N/A
11:50 am 11:50 Mostly Sunny 73 23 43 6 33 33 E 9 15 30.03 1017 7 11 N/A
12:20 pm 12:20 Mostly Sunny 75 24 45 7 34 34 ESE 8 13 30.03 1017 7 11 N/A
12:50 pm 12:50 Mostly Sunny 77 25 45 7 32 32 ESE 8 13 30.03 1017 7 11 N/A
1:20 pm 13:20 Mostly Sunny 79 26 48 9 34 34 ESE 7 11 30.03 1017 7 11 N/A
1:50 pm 13:50 Mostly Sunny 77 25 46 8 34 34 SE 8 13 30.00 1016 7 11 N/A
2:20 pm 14:20 Mostly Sunny 79 26 48 9 34 34 ESE 7 11 30.00 1016 7 11 N/A
2:50 pm 14:50 Mostly Sunny 81 27 50 10 34 34 SE 5 7 30.00 1016 7 11 N/A
3:20 pm 15:20 Mostly Sunny 81 27 50 10 34 34 E 6 9 30.00 1016 7 11 N/A
3:50 pm 15:50 Mostly Sunny 82 28 50 10 32 32 VRB 3 6 29.97 1015 7 11 N/A
4:20 pm 16:20 Mostly Sunny 82 28 52 11 35 35 VRB 5 7 29.97 1015 7 11 N/A
4:50 pm 16:50 Mostly Sunny 82 28 52 11 35 35 VRB 5 7 29.97 1015 7 11 N/A
5:20 pm 17:20 Mostly Sunny 82 28 52 11 35 35 N N/A 29.97 1015 7 11 N/A
5:50 pm 17:50 Mostly Sunny 82 28 52 11 35 35 VRB 5 7 29.97 1015 7 11 N/A
6:20 pm 18:20 Mostly Sunny 79 26 54 12 42 42 N 10 17 29.94 1014 7 11 N/A
6:50 pm 18:50 Mostly Sunny 77 25 52 11 42 42 NNE 8 13 29.94 1014 7 11 N/A
7:20 pm 19:20 Mostly Sunny 75 24 50 10 41 41 NE 9 15 29.94 1014 7 11 N/A
7:50 pm 19:50 Mostly Sunny 75 24 50 10 41 41 NNE 7 11 29.94 1014 7 11 N/A
8:20 pm 20:20 Mostly Sunny 73 23 52 11 47 47 NE 6 9 29.97 1015 7 11 N/A
8:50 pm 20:50 Mostly Sunny 72 22 52 11 50 50 NNE 5 7 29.94 1014 7 11 N/A

Powered by AerisWeather